Monticello, AR

9:27 PM CDT on August 19, 2017 (GMT -0500)
Monticello Municipal-Ellis

Weather History for KLLQ - August, 2013

Change the Weather History Date:

Saturday, August 24, 2013

  Actual Average Record
Temperature  
Mean Temperature 84 °F -  
Max Temperature 96 °F 91 °F 100 °F (1978)
Min Temperature 73 °F 67 °F 58 °F (1966)
Cooling Degree Days 19    
Growing Degree Days 34 (Base 50)    
Moisture  
Dew Point 70 °F    
Average Humidity 66    
Maximum Humidity 90    
Minimum Humidity 38    
Precipitation  
Precipitation 0.00 in - - ()
Sea Level Pressure  
Sea Level Pressure 30.06 in    
Wind  
Wind Speed 2 mph (East)    
Max Wind Speed 12 mph    
Max Gust Speed 20 mph    
Visibility 10 miles    
Events      
Averages and records for this station are not official NWS values.
T = Trace of Precipitation, MM = Missing Value Source: NWS Daily Summary

Daily Weather History Graph

Daily Weather History Graph

Search for Another Location

Airport or City:

Trip Planner

Search our weather history database for the weather conditions in past years. The results will help you decide how hot, cold, wet, or windy it might be!

Date:

Astronomy

Aug. 24, 2013 Rise Set
Actual Time 6:35 AM CDT 7:42 PM CDT
Civil Twilight 6:09 AM CDT 8:08 PM CDT
Nautical Twilight 5:39 AM CDT 8:38 PM CDT
Astronomical Twilight 5:07 AM CDT 9:10 PM CDT
Moon 9:52 PM CDT (8/24) 10:21 AM CDT (8/24)
Length of Visible Light 13h 58m
Length of Day
13h 06m
Waning Gibbous, 84% of the Moon is Illuminated
Aug 24
Waning Gibbous
Aug 28
Last Quarter
Sep 5
New
Sep 12
First Quarter
Sep 19
Full

Hourly Weather History & Observations

Time (CDT) Temp. Heat Index Dew Point Humidity Pressure Visibility Wind Dir Wind Speed Gust Speed Precip Events Conditions
12:53 AM 75.9 °F - 70.0 °F 82% 30.02 in 10.0 mi Calm Calm - N/A   Clear
1:53 AM 73.9 °F - 70.0 °F 87% 30.02 in 10.0 mi Calm Calm - N/A   Clear
2:53 AM 73.9 °F - 70.0 °F 87% 30.02 in 10.0 mi Calm Calm - N/A   Clear
3:53 AM 73.0 °F - 70.0 °F 90% 30.03 in 10.0 mi Calm Calm - N/A   Clear
4:53 AM 73.9 °F - 70.0 °F 87% 30.03 in 9.0 mi Calm Calm - 0.00 in   Clear
5:53 AM 73.0 °F - 70.0 °F 90% 30.05 in 9.0 mi Calm Calm - N/A   Clear
6:53 AM 73.0 °F - 70.0 °F 90% 30.07 in 8.0 mi Calm Calm - N/A   Clear
7:53 AM 75.9 °F - 72.0 °F 87% 30.09 in 10.0 mi East 4.6 mph - N/A   Clear
8:53 AM 82.0 °F 87.4 °F 73.0 °F 74% 30.10 in 10.0 mi Calm Calm - N/A   Clear
9:53 AM 86.0 °F 93.0 °F 73.0 °F 65% 30.10 in 10.0 mi NE 4.6 mph - N/A   Clear
10:53 AM 88.0 °F 94.7 °F 72.0 °F 59% 30.10 in 10.0 mi Calm Calm - N/A   Partly Cloudy
11:53 AM 91.9 °F 98.4 °F 71.1 °F 50% 30.09 in 10.0 mi ENE 6.9 mph - N/A   Scattered Clouds
12:53 PM 91.0 °F 95.2 °F 68.0 °F 47% 30.09 in 10.0 mi East 6.9 mph - N/A   Partly Cloudy
1:53 PM 93.9 °F 98.6 °F 68.0 °F 43% 30.07 in 10.0 mi Variable 4.6 mph - N/A   Partly Cloudy
2:53 PM 95.0 °F 97.9 °F 66.0 °F 38% 30.06 in 10.0 mi East 11.5 mph 19.6 mph N/A   Clear
3:53 PM 93.0 °F 96.4 °F 66.9 °F 42% 30.04 in 10.0 mi East 8.1 mph - N/A   Partly Cloudy
4:53 PM 93.9 °F 97.5 °F 66.9 °F 41% 30.03 in 10.0 mi ESE 6.9 mph - N/A   Clear
5:53 PM 93.9 °F 97.5 °F 66.9 °F 41% 30.02 in 10.0 mi East 9.2 mph - N/A   Clear
6:53 PM 93.0 °F 97.4 °F 68.0 °F 44% 30.03 in 10.0 mi East 5.8 mph - N/A   Clear
7:53 PM 87.1 °F 92.0 °F 70.0 °F 57% 30.04 in 10.0 mi ENE 10.4 mph - N/A   Scattered Clouds
8:53 PM 84.0 °F 89.0 °F 71.1 °F 65% 30.08 in 10.0 mi East 5.8 mph - N/A   Partly Cloudy
9:53 PM 82.9 °F 87.5 °F 71.1 °F 67% 30.09 in 10.0 mi East 5.8 mph - N/A   Mostly Cloudy
10:53 PM 81.0 °F 84.9 °F 71.1 °F 72% 30.10 in 10.0 mi Calm Calm - N/A   Clear
11:53 PM 79.0 °F - 71.1 °F 77% 30.10 in 10.0 mi Calm Calm - N/A   Clear